SCP
0 0 0 0 0 0 0 0 0 0 0 0 0 0 0 0 0 0 0 0 0 0 0 0 0 0 0 0 0 0 0 0 0 0 0 0 0 0 0 0 0 0 0
0 0 0 0 0 0 0 0 0 0 0 0 0 0 0 0 0 0 0 0 0 0 0 0 0 0 0 0 0 0 0 0 0 0 0 0 0 0 0 0 0 0 0
0 0 0 0 0 0 0 0 0 0 0 0 0 0 0 0 0 0 0 0 0 0 0 0 0 0 0 0 0 0 0 0 0 0 0 0 0 0 0 0 0 0 0
1 1 1 1 0 0 0 0 0 0 0 0 0 0 0 0 0 0 0 0 0 0 0 0 0 0 0 0 0 0 0 0 0 0 0 0 0 0 0 0 0 0 0
1 1 1 1 1 0 0 0 0 0 0 0 0 0 0 0 0 0 0 0 0 0 0 0 0 0 0 0 0 0 0 0 0 0 0 0 0 0 0 0 0 0 0
1 1 1 1 1 1 1 1 0 0 0 0 0 0 0 0 0 0 0 0 0 0 0 0 0 0 0 0 0 0 0 0 0 0 0 0 0 0 0 0 0 0 0
1 1 2 2 2 1 1 1 1 0 0 0 0 0 0 0 0 0 0 0 0 0 0 0 0 0 0 0 0 0 0 0 0 0 0 0 0 0 0 0 0 0 0
1 1 2 2 2 2 1 1 1 1 0 0 0 0 0 0 0 0 0 0 0 0 0 0 0 0 0 0 0 0 0 0 0 0 0 0 0 0 0 0 0 0 0
1 1 1 2 2 2 2 1 1 1 1 0 0 0 0 0 0 0 0 0 0 0 0 0 0 0 0 0 0 0 0 0 0 0 0 0 0 0 0 0 0 0 0
1 1 1 2 2 2 2 2 2 1 1 1 1 0 0 0 0 0 0 0 0 0 0 0 0 0 0 0 0 0 0 0 0 0 0 0 0 0 0 0 0 0 0
1 1 1 2 2 2 3 3 2 2 2 2 1 1 0 0 0 0 0 0 0 0 0 0 0 0 0 0 0 0 0 0 0 0 0 0 0 0 0 0 0 0 0
1 1 2 2 2 2 3 3 3 3 3 3 2 2 1 0 0 0 0 0 0 0 0 0 0 0 0 0 0 0 0 0 0 0 0 0 0 0 0 0 0 0 0
1 1 1 2 2 2 3 4 4 4 3 4 3 3 2 1 0 0 0 0 0 0 0 0 0 0 0 0 0 0 0 0 0 0 0 0 0 0 0 0 0 0 0
0 1 1 1 1 2 2 3 4 4 4 4 4 4 3 2 1 0 0 0 0 0 0 0 0 0 0 0 0 0 0 0 0 0 0 0 0 0 0 0 0 0 0
0 0 0 1 1 1 2 3 3 4 4 3 3 4 4 3 2 1 0 0 0 0 0 0 0 0 0 0 0 0 0 0 0 0 0 0 0 0 0 0 0 0 0
0 0 0 0 1 1 2 2 3 3 3 3 2 2 3 2 2 1 0 0 0 0 0 0 0 0 0 0 0 0 0 0 0 0 0 0 0 0 0 0 0 0 0
0 0 0 0 0 1 1 1 2 2 2 2 1 1 1 1 0 0 0 0 0 0 0 0 0 0 0 0 0 0 0 0 0 0 0 0 0 0 0 0 0 0 0
0 0 0 0 0 0 0 1 1 1 1 1 0 0 0 0 0 0 0 0 0 0 0 0 0 0 0 0 0 0 0 0 0 0 0 0 0 0 0 0 0 0 0
0 0 0 0 0 0 0 0 0 0 0 0 0 0 0 0 0 0 0 0 0 0 0 0 0 0 0 0 0 0 0 0 0 0 0 0 0 0 0 0 0 0 0
0 0 0 0 0 0 0 0 0 0 0 0 0 0 0 0 0 0 0 0 0 0 0 0 0 0 0 0 0 0 0 0 0 0 0 0 0 0 0 0 0 0 0
0 0 0 0 0 0 0 0 0 0 0 0 0 0 0 0 0 0 0 0 0 0 0 0 0 0 0 0 0 0 0 0 0 0 0 0 0 0 0 0 0 0 0
0 0 0 0 0 0 0 0 0 0 0 0 0 0 0 0 0 0 0 0 0 0 0 0 0 0 0 0 0 0 0 0 0 0 0 0 0 0 0 0 0 0 0
0 0 0 0 0 0 0 0 0 0 0 0 0 0 0 0 0 0 0 0 0 0 0 0 0 0 0 0 0 0 0 0 0 0 0 0 0 0 0 0 0 0 0
0 0 0 0 0 0 0 0 0 0 0 0 0 0 0 0 0 0 0 0 0 0 0 0 0 0 0 0 0 0 0 0 0 0 0 0 0 0 0 0 0 0 0
0 0 0 0 0 0 0 0 0 0 0 0 0 0 0 0 0 0 0 0 0 0 0 0 0 0 0 0 0 0 0 0 0 0 0 0 0 0 0 0 0 0 0
0 0 0 0 0 0 0 0 0 0 0 0 0 0 0 0 0 0 0 0 0 0 0 0 0 0 0 0 0 0 0 0 0 0 0 0 0 0 0 0 0 0 0
Wind_Speed
4 4 4 5 6 5 5 5 5 5 5 5 4 4 4 4 3 5 5 10 11 10 10 9 8 7 7 7 7 7 7 7 8 8 8 8 9 9 9 9 10 10 10
4 4 4 4 5 5 5 5 6 4 4 3 4 4 3 4 4 6 6 7 11 11 11 10 9 8 8 8 7 7 6 6 6 6 6 7 7 7 7 8 8 8 9
6 5 4 4 4 5 5 5 6 4 4 4 4 4 3 3 3 6 8 6 6 9 11 11 11 10 9 8 8 7 6 5 5 4 4 5 5 5 5 5 6 6 7
7 6 5 5 5 5 4 4 4 3 4 4 4 3 3 2 3 4 6 7 6 6 8 12 12 12 11 10 9 8 7 6 4 3 3 2 2 2 3 3 4 5 5
8 7 5 5 6 5 5 5 4 4 4 4 4 4 4 4 4 3 5 7 8 8 6 10 11 12 12 11 10 9 8 6 5 3 2 2 1 0 2 3 4 4 5
7 7 6 7 6 5 6 5 5 5 4 5 4 4 4 4 4 4 5 5 6 8 8 8 6 8 12 13 12 11 9 7 5 4 3 3 2 2 3 4 5 5 6
7 7 6 7 7 6 7 7 6 6 5 4 3 2 2 3 5 5 5 5 6 7 8 9 7 6 6 13 14 12 11 9 7 5 4 4 4 4 5 6 6 7 8
8 6 7 6 6 6 7 8 7 6 5 5 5 3 2 4 5 6 5 6 7 6 7 9 9 8 7 5 8 13 12 10 8 7 5 5 5 5 6 7 8 9 9
8 8 8 7 7 7 7 8 8 9 7 6 6 6 5 7 4 4 7 7 6 6 6 6 8 9 9 7 6 11 12 11 9 8 6 5 5 6 7 8 9 10 11
8 9 9 9 9 8 8 8 9 7 8 6 5 6 5 4 4 3 3 4 5 5 6 6 6 6 7 6 8 13 13 11 10 8 7 6 6 7 8 9 11 12 13
6 7 8 9 9 8 9 9 9 9 8 8 6 4 6 5 3 3 3 3 3 3 3 4 4 4 5 6 5 10 13 11 10 8 7 7 7 8 10 11 12 13 14
4 5 6 7 8 8 9 10 10 10 10 10 8 6 6 5 6 5 4 3 3 2 1 1 2 3 4 5 7 12 12 10 8 7 7 8 9 10 11 12 13 14 15
4 4 4 5 6 7 8 9 9 10 11 10 10 8 8 7 4 4 5 3 3 1 1 1 2 2 3 4 4 10 8 8 7 7 8 10 10 11 12 13 15 16 16
4 5 5 4 5 5 6 7 8 9 8 10 10 9 6 6 5 4 4 5 4 1 1 1 1 2 3 3 6 8 4 6 6 8 9 11 12 12 14 15 16 17 17
5 6 6 5 5 4 4 5 5 7 6 7 7 7 5 3 3 3 2 4 6 6 6 4 2 2 2 3 6 4 3 6 8 9 11 12 14 14 15 16 17 17 18
7 8 7 6 6 5 4 3 3 3 3 3 2 2 2 2 2 2 2 2 2 4 4 3 2 2 3 4 6 4 3 7 10 12 13 14 15 15 16 17 17 18 18
8 8 8 8 8 7 6 4 4 3 1 2 3 3 4 4 4 3 3 3 2 2 3 2 2 2 3 4 3 2 3 4 5 12 14 15 16 16 17 18 18 18 19
8 9 8 9 9 9 8 7 6 6 5 5 5 6 6 5 6 4 3 4 3 3 3 4 2 2 3 4 3 3 4 4 5 11 14 15 16 17 17 18 18 18 18
9 9 10 10 10 9 9 9 8 8 8 8 7 7 7 7 6 5 5 4 3 4 3 4 3 2 2 2 3 3 4 4 5 8 12 13 15 16 17 17 18 18 18
8 9 10 10 10 9 10 9 10 10 10 10 9 8 7 6 6 6 5 4 4 4 4 3 3 2 2 2 2 2 3 3 3 4 7 10 13 16 16 17 18 18 18
10 9 10 10 9 8 9 10 10 10 10 10 9 8 8 9 9 6 5 4 3 2 2 2 2 1 1 1 2 2 2 2 3 3 3 4 5 5 7 13 17 18 19
10 10 10 10 10 9 15 16 11 9 9 9 8 8 8 9 10 10 9 6 3 2 2 1 1 1 1 2 1 1 0 1 3 2 2 5 4 6 6 5 14 20 19
9 10 9 10 10 13 17 17 16 9 9 8 7 6 6 6 8 5 5 5 3 3 1 1 0 1 1 1 1 0 1 2 4 4 4 7 5 7 6 9 18 20 20
7 7 8 8 8 10 15 14 13 8 6 5 5 5 4 4 4 3 2 2 2 1 1 1 1 1 1 1 2 2 3 4 5 4 3 5 5 6 8 6 15 20 20
6 5 5 5 6 7 11 11 9 3 4 4 3 4 4 3 4 5 3 2 3 3 3 2 4 5 8 8 6 2 2 2 4 4 2 3 4 4 5 6 9 14 15
4 3 3 3 4 4 9 10 9 3 3 2 2 2 4 4 5 6 3 2 3 2 3 4 5 6 5 6 9 3 3 3 3 4 2 2 3 4 6 4 3 4 7
Wind_Direction
185 185 182 176 185 188 190 185 204 206 195 197 205 204 183 200 183 137 145 151 153 158 160 158 156 152 144 132 120 110 102 94 87 82 77 73 69 65 62 58 52 47 42
190 194 194 189 190 191 182 185 202 203 188 188 200 211 215 199 184 145 150 155 161 166 171 173 173 168 161 151 141 130 118 106 97 89 83 77 71 64 59 55 50 44 38
198 197 200 199 195 194 190 187 202 201 185 181 194 206 215 218 188 154 155 157 161 172 179 185 183 179 175 168 159 150 139 127 115 104 93 85 75 63 55 48 42 35 28
203 202 202 208 198 192 191 191 198 194 186 178 186 204 204 204 207 182 161 162 165 171 185 192 190 187 185 182 174 165 158 150 142 134 122 105 85 58 34 25 18 12 6
207 203 205 208 202 198 195 194 193 186 186 189 196 199 197 192 208 207 180 169 169 170 174 192 190 189 190 190 187 181 174 169 168 170 175 177 186 301 330 333 335 337 337
217 210 207 210 207 203 202 195 191 193 189 185 196 200 201 196 197 205 203 183 172 170 171 177 177 187 191 195 196 193 187 184 187 197 211 225 242 265 286 299 308 314 316
230 221 217 213 213 213 208 198 187 197 204 172 159 211 258 227 211 207 202 193 184 177 171 173 176 175 190 200 199 198 196 196 200 208 223 238 253 270 284 293 299 302 305
230 229 223 221 219 221 218 208 200 197 198 180 159 145 223 257 250 221 202 203 195 182 184 179 179 178 180 180 197 198 201 202 207 213 224 238 256 273 284 293 299 302 305
226 227 226 224 222 222 226 220 211 204 205 200 182 169 181 212 223 231 216 207 199 189 190 184 183 179 176 175 181 196 195 202 209 216 223 236 255 273 284 292 297 300 302
225 223 223 223 223 223 226 225 221 216 205 206 212 218 215 178 174 213 253 220 204 197 190 190 186 179 171 161 174 181 187 196 208 217 226 240 257 273 284 291 296 299 301
240 231 226 224 224 225 225 225 223 221 217 212 203 202 230 247 225 169 212 225 219 214 192 184 175 169 162 148 152 173 182 194 208 220 235 249 265 278 288 294 297 299 299
265 245 235 231 227 225 225 225 225 224 224 221 214 202 193 202 209 202 197 184 200 225 176 129 150 151 149 147 159 168 178 192 209 225 246 264 277 288 295 298 299 298 296
293 279 262 247 238 232 229 226 226 228 225 223 222 218 213 214 198 199 200 176 155 129 86 66 49 91 112 112 136 156 176 194 219 240 259 273 285 296 298 298 296 295 294
306 310 302 287 271 252 241 234 231 232 230 229 228 221 217 213 203 196 186 164 155 166 202 189 50 71 87 107 141 147 167 199 229 252 268 282 291 295 295 295 293 293 292
333 336 334 328 318 298 271 251 242 236 231 233 232 225 220 207 182 177 168 171 172 188 209 191 176 130 121 115 146 136 145 211 235 254 269 278 283 285 287 288 289 289 289
355 354 353 351 350 347 341 313 285 266 241 240 232 211 196 145 126 128 141 136 158 177 181 159 169 152 154 160 171 161 193 232 251 262 269 274 279 282 284 286 287 287 287
9 9 8 10 11 9 8 11 11 15 46 60 69 94 94 94 98 90 97 108 111 131 147 123 107 120 146 164 170 184 215 238 256 267 274 277 280 282 284 285 286 286 285
18 19 20 24 24 24 24 30 34 39 55 72 79 87 90 92 91 90 92 94 96 93 125 136 136 145 166 177 186 211 231 240 242 263 272 278 280 282 283 285 285 284 284
28 29 33 35 34 33 37 43 51 54 57 61 69 83 88 94 92 87 87 89 85 75 80 120 127 140 158 179 195 222 238 249 256 267 277 282 285 287 286 286 287 287 286
39 40 40 41 42 43 46 52 60 64 66 65 65 70 76 85 94 92 87 88 90 88 92 108 123 144 161 171 181 214 245 246 261 272 281 284 287 291 292 294 293 292 288
48 47 48 46 45 49 53 59 62 67 70 70 67 68 74 86 94 91 93 90 89 97 108 112 124 129 144 167 208 211 234 273 284 272 276 282 288 284 288 289 291 287 285
52 52 53 53 52 56 65 69 71 65 66 66 65 60 62 61 68 75 85 87 88 89 88 93 100 143 209 220 205 187 196 337 300 297 310 286 280 278 272 263 280 285 286
57 58 56 56 57 61 66 70 71 68 66 63 62 59 59 57 54 42 47 51 39 39 61 92 141 245 244 215 135 5 276 251 251 265 292 284 269 273 271 279 288 291 294
61 62 61 59 60 61 66 69 72 69 68 63 60 59 60 58 50 32 26 18 332 303 244 182 196 255 271 238 193 209 234 264 269 267 263 276 279 273 280 276 288 290 293
67 65 68 67 65 56 56 55 59 72 72 68 64 58 49 36 21 12 19 358 339 321 302 282 276 282 284 282 272 257 277 296 295 286 251 258 283 293 281 273 281 289 293
81 75 66 69 74 61 50 44 40 44 45 36 36 53 56 34 4 1 18 6 339 337 358 341 319 308 298 288 285 239 197 220 263 289 280 287 295 328 307 280 266 280 290